Location: Unspecified
(0.0000°N, 0.0000°E)
Time: 12:26:55
(UTC+02:00)

Iridium 76 - Visible Passes

Search period start: 02 October 2014 00:00
Search period end: 12 October 2014 00:00
Orbit: 776 x 779 km, 86.4° (Epoch: 01 October)

Date Brightness Start Highest point End Pass type
(mag) Time Alt. Az. Time Alt. Az. Time Alt. Az.
02 Oct 7.6 20:58:59 10° SE 20:59:19 11° SE 20:59:19 11° SE visible
03 Oct 7.2 22:05:15 10° SSW 22:07:59 28° SW 22:07:59 28° SW visible
04 Oct 5.4 21:31:26 10° S 21:36:29 84° SSE 21:36:29 84° SSE visible
05 Oct 5.9 20:58:22 10° SSE 21:03:12 39° E 21:06:05 21° NE visible
05 Oct 8.5 22:42:16 10° WSW 22:43:36 11° W 22:44:57 10° WNW visible
06 Oct 6.8 20:26:19 10° SE 20:29:44 18° E 20:33:08 10° NE visible
06 Oct 7.5 22:05:56 10° SW 22:10:09 25° W 22:14:23 10° NW visible
07 Oct 6.1 21:31:36 10° SSW 21:36:42 57° W 21:41:47 10° NNW visible
08 Oct 5.4 20:58:05 10° S 21:03:15 64° E 21:08:22 10° N visible
09 Oct 6.3 20:25:21 10° SSE 20:29:47 28° E 20:34:11 10° NNE visible
09 Oct 8.3 22:07:10 10° SW 22:10:12 16° W 22:13:13 10° NW visible
10 Oct 7.1 21:32:03 10° SSW 21:36:44 34° W 21:41:25 10° NNW visible
11 Oct 5.6 20:58:05 10° S 21:03:17 79° W 21:08:28 10° N visible
